Time,TemperatureF,DewpointF,PressureIn,WindDirection,WindDirectionDegrees,WindSpeedMPH,WindSpeedGustMPH,Humidity,HourlyPrecipIn,Conditions,Clouds,dailyrainin,SolarRadiationWatts/m^2,SoftwareType,DateUTC
2013-08-02 00:02:00,76.0,28.0,-100.00,SW,221,0.0,11.0,17,-99.99,,,0.00,0.000000,,2013-08-02 07:02:00,
2013-08-02 00:12:00,76.0,28.0,-100.00,SW,221,0.0,11.0,17,-99.99,,,0.00,0.000000,,2013-08-02 07:12:00,
2013-08-02 00:22:00,76.0,28.0,-100.00,SW,221,0.0,11.0,17,-99.99,,,0.00,0.000000,,2013-08-02 07:22:00,
2013-08-02 00:53:00,75.0,31.0,-100.00,West,263,0.0,7.0,20,0.00,,,0.00,0.000000,,2013-08-02 07:53:00,
2013-08-02 01:02:00,75.0,31.0,-100.00,West,263,0.0,7.0,20,0.00,,,0.00,0.000000,,2013-08-02 08:02:00,
2013-08-02 01:12:00,75.0,31.0,-100.00,West,263,0.0,7.0,20,0.00,,,0.00,0.000000,,2013-08-02 08:12:00,
2013-08-02 01:22:00,75.0,31.0,-100.00,West,263,0.0,7.0,20,0.00,,,0.00,0.000000,,2013-08-02 08:22:00,
2013-08-02 01:54:00,72.0,34.0,-100.00,ESE,102,0.0,10.0,25,0.00,,,0.00,0.000000,,2013-08-02 08:54:00,
2013-08-02 02:02:00,72.0,34.0,-100.00,ESE,102,0.0,10.0,25,0.00,,,0.00,0.000000,,2013-08-02 09:02:00,
2013-08-02 02:12:00,72.0,34.0,-100.00,ESE,102,0.0,10.0,25,0.00,,,0.00,0.000000,,2013-08-02 09:12:00,
2013-08-02 02:22:00,72.0,34.0,-100.00,ESE,102,0.0,10.0,25,0.00,,,0.00,0.000000,,2013-08-02 09:22:00,
2013-08-02 02:53:00,71.0,35.0,-100.00,SSW,213,2.0,10.0,27,0.00,,,0.00,0.000000,,2013-08-02 09:53:00,
2013-08-02 03:02:00,71.0,35.0,-100.00,SSW,213,2.0,10.0,27,0.00,,,0.00,0.000000,,2013-08-02 10:02:00,
2013-08-02 03:12:00,71.0,35.0,-100.00,SSW,213,2.0,10.0,27,0.00,,,0.00,0.000000,,2013-08-02 10:12:00,
2013-08-02 03:23:00,71.0,35.0,-100.00,SSW,213,2.0,10.0,27,0.00,,,0.00,0.000000,,2013-08-02 10:23:00,
2013-08-02 03:52:00,71.0,34.0,-100.00,West,278,5.0,11.0,26,0.00,,,0.00,0.000000,,2013-08-02 10:52:00,
2013-08-02 04:02:00,71.0,34.0,-100.00,West,278,5.0,11.0,26,0.00,,,0.00,0.000000,,2013-08-02 11:02:00,
2013-08-02 04:12:00,71.0,34.0,-100.00,West,278,5.0,11.0,26,0.00,,,0.00,0.000000,,2013-08-02 11:12:00,
2013-08-02 04:22:00,71.0,34.0,-100.00,West,278,5.0,11.0,26,0.00,,,0.00,0.000000,,2013-08-02 11:22:00,
2013-08-02 04:52:00,71.0,35.0,-100.00,WSW,251,9.0,14.0,27,0.00,,,0.00,0.000000,,2013-08-02 11:52:00,
2013-08-02 05:02:00,71.0,35.0,-100.00,WSW,251,9.0,14.0,27,0.00,,,0.00,0.000000,,2013-08-02 12:02:00,
2013-08-02 05:12:00,71.0,35.0,-100.00,WSW,251,9.0,14.0,27,0.00,,,0.00,0.000000,,2013-08-02 12:12:00,
2013-08-02 05:22:00,71.0,35.0,-100.00,WSW,251,9.0,14.0,27,0.00,,,0.00,0.000000,,2013-08-02 12:22:00,
2013-08-02 05:52:00,68.0,34.0,-100.00,NW,307,5.0,11.0,28,0.00,,,0.00,0.000000,,2013-08-02 12:52:00,
2013-08-02 06:02:00,68.0,34.0,-100.00,NW,307,5.0,11.0,28,0.00,,,0.00,0.000000,,2013-08-02 13:02:00,
2013-08-02 06:12:00,68.0,34.0,-100.00,NW,307,5.0,11.0,28,0.00,,,0.00,0.000000,,2013-08-02 13:12:00,
2013-08-02 06:22:00,68.0,34.0,-100.00,NW,307,5.0,11.0,28,0.00,,,0.00,0.000000,,2013-08-02 13:22:00,
2013-08-02 06:52:00,68.0,34.0,-100.00,WNW,300,1.0,6.0,28,0.00,,,0.00,10.000000,,2013-08-02 13:52:00,
2013-08-02 07:02:00,68.0,34.0,-100.00,WNW,300,1.0,6.0,28,0.00,,,0.00,10.000000,,2013-08-02 14:02:00,
2013-08-02 07:12:00,68.0,34.0,-100.00,WNW,300,1.0,6.0,28,0.00,,,0.00,10.000000,,2013-08-02 14:12:00,
2013-08-02 07:22:00,68.0,34.0,-100.00,WNW,300,1.0,6.0,28,0.00,,,0.00,10.000000,,2013-08-02 14:22:00,
2013-08-02 07:53:00,76.0,36.0,-100.00,South,178,1.0,5.0,23,0.00,,,0.00,185.000000,,2013-08-02 14:53:00,
2013-08-02 08:03:00,76.0,36.0,-100.00,South,178,1.0,5.0,23,0.00,,,0.00,185.000000,,2013-08-02 15:03:00,
2013-08-02 08:12:00,76.0,36.0,-100.00,South,178,1.0,5.0,23,0.00,,,0.00,185.000000,,2013-08-02 15:12:00,
2013-08-02 08:22:00,76.0,36.0,-100.00,South,178,1.0,5.0,23,0.00,,,0.00,185.000000,,2013-08-02 15:22:00,
2013-08-02 08:52:00,78.0,34.0,-100.00,ESE,121,0.0,5.0,20,0.00,,,0.00,456.000000,,2013-08-02 15:52:00,
2013-08-02 09:02:00,78.0,34.0,-100.00,ESE,121,0.0,5.0,20,0.00,,,0.00,456.000000,,2013-08-02 16:02:00,
2013-08-02 09:12:00,78.0,34.0,-100.00,ESE,121,0.0,5.0,20,0.00,,,0.00,456.000000,,2013-08-02 16:12:00,
2013-08-02 09:22:00,78.0,34.0,-100.00,ESE,121,0.0,5.0,20,0.00,,,0.00,456.000000,,2013-08-02 16:22:00,
2013-08-02 09:53:00,83.0,35.0,-100.00,ENE,74,0.0,6.0,18,0.00,,,0.00,732.000000,,2013-08-02 16:53:00,
2013-08-02 10:02:00,83.0,35.0,-100.00,ENE,74,0.0,6.0,18,0.00,,,0.00,732.000000,,2013-08-02 17:02:00,
2013-08-02 10:12:00,83.0,35.0,-100.00,ENE,74,0.0,6.0,18,0.00,,,0.00,732.000000,,2013-08-02 17:12:00,
2013-08-02 10:22:00,83.0,35.0,-100.00,ENE,74,0.0,6.0,18,0.00,,,0.00,732.000000,,2013-08-02 17:22:00,
2013-08-02 10:52:00,82.0,31.0,-100.00,East,85,4.0,8.0,16,0.00,,,0.00,970.000000,,2013-08-02 17:52:00,
2013-08-02 11:02:00,82.0,31.0,-100.00,East,85,4.0,8.0,16,0.00,,,0.00,970.000000,,2013-08-02 18:02:00,
2013-08-02 11:12:00,82.0,31.0,-100.00,East,85,4.0,8.0,16,0.00,,,0.00,970.000000,,2013-08-02 18:12:00,
2013-08-02 11:22:00,82.0,31.0,-100.00,East,85,4.0,8.0,16,0.00,,,0.00,970.000000,,2013-08-02 18:22:00,
2013-08-02 11:52:00,83.0,31.0,-100.00,SE,132,4.0,11.0,15,0.00,,,0.00,1117.000000,,2013-08-02 18:52:00,
2013-08-02 12:02:00,83.0,31.0,-100.00,SE,132,4.0,11.0,15,0.00,,,0.00,1117.000000,,2013-08-02 19:02:00,
2013-08-02 12:12:00,83.0,31.0,-100.00,SE,132,4.0,11.0,15,0.00,,,0.00,1117.000000,,2013-08-02 19:12:00,
2013-08-02 12:21:00,83.0,31.0,-100.00,SE,132,4.0,11.0,15,0.00,,,0.00,1117.000000,,2013-08-02 19:21:00,
2013-08-02 12:52:00,85.0,27.0,-100.00,ESE,104,5.0,10.0,12,0.00,,,0.00,1192.000000,,2013-08-02 19:52:00,
2013-08-02 13:02:00,85.0,27.0,-100.00,ESE,104,5.0,10.0,12,0.00,,,0.00,1192.000000,,2013-08-02 20:02:00,
2013-08-02 13:12:00,85.0,27.0,-100.00,ESE,104,5.0,10.0,12,0.00,,,0.00,1192.000000,,2013-08-02 20:12:00,
2013-08-02 13:22:00,85.0,27.0,-100.00,ESE,104,5.0,10.0,12,0.00,,,0.00,1192.000000,,2013-08-02 20:22:00,
2013-08-02 13:52:00,90.0,26.0,-100.00,ESE,112,7.0,14.0,10,0.00,,,0.00,1351.000000,,2013-08-02 20:52:00,
2013-08-02 14:02:00,90.0,26.0,-100.00,ESE,112,7.0,14.0,10,0.00,,,0.00,1351.000000,,2013-08-02 21:02:00,
2013-08-02 14:12:00,90.0,26.0,-100.00,ESE,112,7.0,14.0,10,0.00,,,0.00,1351.000000,,2013-08-02 21:12:00,
2013-08-02 14:22:00,90.0,26.0,-100.00,ESE,112,7.0,14.0,10,0.00,,,0.00,1351.000000,,2013-08-02 21:22:00,
2013-08-02 14:53:00,91.0,22.0,-100.00,South,171,10.0,20.0,8,0.00,,,0.00,1213.000000,,2013-08-02 21:53:00,
2013-08-02 15:02:00,91.0,22.0,-100.00,South,171,10.0,20.0,8,0.00,,,0.00,1213.000000,,2013-08-02 22:02:00,
2013-08-02 15:12:00,91.0,22.0,-100.00,South,171,10.0,20.0,8,0.00,,,0.00,1213.000000,,2013-08-02 22:12:00,
2013-08-02 15:22:00,91.0,22.0,-100.00,South,171,10.0,20.0,8,0.00,,,0.00,1213.000000,,2013-08-02 22:22:00,
2013-08-02 15:52:00,89.0,23.0,-100.00,South,170,14.0,24.0,9,0.00,,,0.00,897.000000,,2013-08-02 22:52:00,
2013-08-02 16:02:00,89.0,23.0,-100.00,South,170,14.0,24.0,9,0.00,,,0.00,897.000000,,2013-08-02 23:02:00,
2013-08-02 16:12:00,89.0,23.0,-100.00,South,170,14.0,24.0,9,0.00,,,0.00,897.000000,,2013-08-02 23:12:00,
2013-08-02 16:22:00,89.0,23.0,-100.00,South,170,14.0,24.0,9,0.00,,,0.00,897.000000,,2013-08-02 23:22:00,
2013-08-02 16:53:00,88.0,22.0,-100.00,South,181,21.0,29.0,9,0.00,,,0.00,626.000000,,2013-08-02 23:53:00,
2013-08-02 17:02:00,88.0,22.0,-100.00,South,181,21.0,29.0,9,0.00,,,0.00,626.000000,,2013-08-03 00:02:00,
2013-08-02 17:12:00,88.0,22.0,-100.00,South,181,21.0,29.0,9,0.00,,,0.00,626.000000,,2013-08-03 00:12:00,
2013-08-02 17:22:00,88.0,22.0,-100.00,South,181,21.0,29.0,9,0.00,,,0.00,626.000000,,2013-08-03 00:22:00,
2013-08-02 17:52:00,89.0,23.0,-100.00,South,181,22.0,31.0,9,0.00,,,0.00,414.000000,,2013-08-03 00:52:00,
2013-08-02 18:02:00,89.0,23.0,-100.00,South,181,22.0,31.0,9,0.00,,,0.00,414.000000,,2013-08-03 01:02:00,
2013-08-02 18:12:00,89.0,23.0,-100.00,South,181,22.0,31.0,9,0.00,,,0.00,414.000000,,2013-08-03 01:12:00,
2013-08-02 18:22:00,89.0,23.0,-100.00,South,181,22.0,31.0,9,0.00,,,0.00,414.000000,,2013-08-03 01:22:00,
2013-08-02 18:53:00,86.0,21.0,-100.00,SSW,212,11.0,29.0,9,0.00,,,0.00,387.000000,,2013-08-03 01:53:00,
2013-08-02 19:02:00,86.0,21.0,-100.00,SSW,212,11.0,29.0,9,0.00,,,0.00,387.000000,,2013-08-03 02:02:00,
2013-08-02 19:12:00,86.0,21.0,-100.00,SSW,212,11.0,29.0,9,0.00,,,0.00,387.000000,,2013-08-03 02:12:00,
2013-08-02 19:22:00,86.0,21.0,-100.00,SSW,212,11.0,29.0,9,0.00,,,0.00,387.000000,,2013-08-03 02:22:00,
2013-08-02 19:52:00,82.0,20.0,-100.00,West,265,10.0,20.0,10,0.00,,,0.00,84.000000,,2013-08-03 02:52:00,
2013-08-02 20:02:00,82.0,20.0,-100.00,West,265,10.0,20.0,10,0.00,,,0.00,84.000000,,2013-08-03 03:02:00,
2013-08-02 20:12:00,82.0,20.0,-100.00,West,265,10.0,20.0,10,0.00,,,0.00,84.000000,,2013-08-03 03:12:00,
2013-08-02 20:22:00,82.0,20.0,-100.00,West,265,10.0,20.0,10,0.00,,,0.00,84.000000,,2013-08-03 03:22:00,
2013-08-02 21:53:00,81.0,14.0,-100.00,SE,128,0.0,13.0,8,0.00,,,0.00,0.000000,,2013-08-03 04:53:00,
2013-08-02 22:02:00,81.0,14.0,-100.00,SE,128,0.0,13.0,8,0.00,,,0.00,0.000000,,2013-08-03 05:02:00,
2013-08-02 23:52:00,77.0,16.0,-100.00,South,178,0.0,4.0,10,0.00,,,0.00,0.000000,,2013-08-03 06:52:00,